• In Netherlands
  • List of Countries
  • For 7 days
  • Water Temperature
  • Satellite Maps
  • Weather Map
  • Weather Widgets
  • user-avatar
    Login

    Hourly Weather Kitzbuhel

    Today, 21 September, Friday

    Time Temperature Precipitation Wind Pressure Humidity
    00:00 +14°C° 0 mm 2 mps 679 mmHg 80%
    01:00 +13°C° 0 mm 2 mps 678 mmHg 80%
    02:00 +13°C° 0 mm 2 mps 678 mmHg 80%
    03:00 +13°C° 0 mm 2 mps 678 mmHg 80%
    04:00 +13°C° 0 mm 2 mps 678 mmHg 80%
    05:00 +13°C° 0 mm 2 mps 678 mmHg 79%
    06:00 +14°C° 0 mm 2 mps 678 mmHg 79%
    07:00 +15°C° 0 mm 2 mps 678 mmHg 78%
    08:00 +19°C° 0 mm 1 mps 678 mmHg 69%
    09:00 +22°C° 0 mm 1 mps 679 mmHg 59%
    10:00 +24°C° 0 mm 1 mps 679 mmHg 50%
    11:00 +25°C° 0 mm 1 mps 679 mmHg 48%
    12:00 +26°C° 0 mm 1 mps 679 mmHg 46%
    13:00 +26°C° 0 mm 2 mps 678 mmHg 44%
    14:00 +25°C° 0.2 mm 2 mps 678 mmHg 51%
    15:00 +24°C° 0.2 mm 2 mps 678 mmHg 58%
    16:00 +23°C° 0.2 mm 2 mps 677 mmHg 65%
    17:00 +21°C° 0.9 mm 1 mps 677 mmHg 74%
    18:00 +19°C° 0.9 mm 1 mps 677 mmHg 83%
    19:00 +16°C° 0.9 mm 1 mps 677 mmHg 92%
    20:00 +16°C° 1.3 mm 1 mps 678 mmHg 94%
    21:00 +16°C° 1.3 mm 1 mps 678 mmHg 95%
    22:00 +15°C° 1.3 mm 1 mps 679 mmHg 97%
    23:00 +15°C° 1.4 mm 2 mps 679 mmHg 97%

    Tomorrow, 22 September, Saturday

    Time Temperature Precipitation Wind Pressure Humidity
    00:00 +14°C° 1.4 mm 2 mps 679 mmHg 97%
    01:00 +13°C° 1.4 mm 2 mps 679 mmHg 97%
    02:00 +12°C° 1.2 mm 2 mps 679 mmHg 97%
    03:00 +10°C° 1.2 mm 2 mps 679 mmHg 97%
    04:00 +9°C° 1.2 mm 2 mps 679 mmHg 98%
    05:00 +9°C° 0.7 mm 2 mps 679 mmHg 97%
    06:00 +8°C° 0.7 mm 2 mps 679 mmHg 96%
    07:00 +9°C° 0.7 mm 1 mps 680 mmHg 96%
    08:00 +10°C° 0.2 mm 1 mps 680 mmHg 91%
    09:00 +11°C° 0.2 mm 1 mps 680 mmHg 85%
    10:00 +12°C° 0.2 mm 1 mps 681 mmHg 80%
    11:00 +14°C° 0 mm 1 mps 681 mmHg 74%
    12:00 +15°C° 0 mm 1 mps 681 mmHg 68%
    13:00 +16°C° 0 mm 1 mps 681 mmHg 62%
    14:00 +16°C° 0 mm 1 mps 681 mmHg 64%
    15:00 +16°C° 0 mm 1 mps 681 mmHg 66%
    16:00 +15°C° 0 mm 1 mps 680 mmHg 69%
    17:00 +14°C° 0.1 mm 1 mps 680 mmHg 75%
    18:00 +13°C° 0.1 mm 1 mps 680 mmHg 80%
    19:00 +12°C° 0.1 mm 1 mps 681 mmHg 86%
    20:00 +11°C° 0.2 mm 1 mps 681 mmHg 88%
    21:00 +11°C° 0.2 mm 1 mps 681 mmHg 90%
    22:00 +11°C° 0.2 mm 1 mps 681 mmHg 92%
    23:00 +11°C° 0.2 mm 1 mps 681 mmHg 91%

    Day after tomorrow, 23 September, Sunday

    Time Temperature Precipitation Wind Pressure Humidity
    00:00 +11°C° 0.2 mm 1 mps 681 mmHg 91%
    01:00 +11°C° 0.2 mm 1 mps 681 mmHg 90%
    02:00 +12°C° 0.1 mm 1 mps 681 mmHg 89%
    03:00 +12°C° 0.1 mm 1 mps 681 mmHg 89%
    04:00 +11°C° 0.1 mm 0 mps 680 mmHg 88%
    05:00 +12°C° 0.3 mm 1 mps 680 mmHg 89%
    06:00 +12°C° 0.3 mm 1 mps 680 mmHg 90%
    07:00 +13°C° 0.3 mm 1 mps 680 mmHg 91%
    08:00 +13°C° 0.4 mm 1 mps 680 mmHg 90%
    09:00 +14°C° 0.4 mm 1 mps 681 mmHg 89%
    10:00 +15°C° 0.4 mm 1 mps 681 mmHg 88%
    11:00 +18°C° 0.2 mm 1 mps 681 mmHg 82%
    12:00 +19°C° 0.2 mm 1 mps 681 mmHg 77%
    13:00 +21°C° 0.2 mm 1 mps 681 mmHg 71%
    14:00 +21°C° 0.1 mm 2 mps 680 mmHg 71%
    15:00 +21°C° 0.1 mm 2 mps 680 mmHg 70%
    16:00 +23°C° 0.1 mm 2 mps 679 mmHg 70%
    17:00 +20°C° 0.2 mm 2 mps 679 mmHg 77%
    18:00 +18°C° 0.2 mm 2 mps 678 mmHg 85%
    19:00 +16°C° 0.2 mm 1 mps 678 mmHg 92%
    20:00 +16°C° 0.3 mm 2 mps 677 mmHg 92%
    21:00 +16°C° 0.3 mm 2 mps 677 mmHg 93%
    22:00 +16°C° 0.3 mm 3 mps 677 mmHg 93%
    23:00 +16°C° 0.8 mm 3 mps 676 mmHg 94%

    24 September, Monday

    Time Temperature Precipitation Wind Pressure Humidity
    00:00 +16°C° 0.8 mm 3 mps 675 mmHg 95%
    01:00 +14°C° 0.8 mm 3 mps 675 mmHg 95%
    02:00 +14°C° 2.9 mm 3 mps 675 mmHg 95%
    03:00 +13°C° 2.9 mm 4 mps 676 mmHg 95%
    04:00 +13°C° 2.9 mm 4 mps 677 mmHg 95%
    05:00 +11°C° 0.9 mm 4 mps 677 mmHg 95%
    06:00 +8°C° 0.9 mm 4 mps 678 mmHg 96%
    07:00 +8°C° 0.9 mm 3 mps 679 mmHg 96%
    08:00 +7°C° 0.1 mm 3 mps 680 mmHg 94%
    09:00 +7°C° 0.1 mm 3 mps 680 mmHg 93%
    10:00 +7°C° 0.1 mm 3 mps 681 mmHg 92%
    11:00 +8°C° 0.1 mm 3 mps 681 mmHg 87%
    12:00 +8°C° 0.1 mm 3 mps 681 mmHg 83%
    13:00 +9°C° 0.1 mm 3 mps 682 mmHg 79%
    14:00 +9°C° 0.1 mm 3 mps 682 mmHg 78%
    15:00 +8°C° 0.1 mm 3 mps 682 mmHg 78%
    16:00 +8°C° 0.1 mm 3 mps 683 mmHg 77%
    17:00 +7°C° 0.1 mm 3 mps 683 mmHg 81%
    18:00 +6°C° 0.1 mm 2 mps 684 mmHg 85%
    19:00 +5°C° 0.1 mm 2 mps 684 mmHg 88%
    20:00 +5°C° 0.1 mm 2 mps 685 mmHg 89%
    21:00 +4°C° 0.1 mm 2 mps 685 mmHg 89%
    22:00 +4°C° 0.1 mm 2 mps 686 mmHg 90%
    23:00 +4°C° 0.1 mm 2 mps 686 mmHg 90%

    25 September, Tuesday

    Time Temperature Precipitation Wind Pressure Humidity
    00:00 +4°C° 0.1 mm 2 mps 686 mmHg 91%
    01:00 +4°C° 0.1 mm 2 mps 687 mmHg 91%
    02:00 +4°C° 0 mm 1 mps 687 mmHg 92%
    03:00 +4°C° 0 mm 1 mps 687 mmHg 93%
    04:00 +3°C° 0 mm 1 mps 687 mmHg 94%
    05:00 +3°C° 0 mm 1 mps 687 mmHg 93%
    06:00 +3°C° 0 mm 1 mps 688 mmHg 91%
    07:00 +3°C° 0 mm 1 mps 688 mmHg 90%
    08:00 +4°C° 0 mm 2 mps 688 mmHg 80%
    09:00 +6°C° 0 mm 2 mps 688 mmHg 69%
    10:00 +8°C° 0 mm 2 mps 689 mmHg 58%
    11:00 +9°C° 0 mm 2 mps 689 mmHg 53%
    12:00 +10°C° 0 mm 2 mps 689 mmHg 47%
    13:00 +12°C° 0 mm 2 mps 689 mmHg 41%
    14:00 +12°C° 0 mm 2 mps 688 mmHg 42%
    15:00 +10°C° 0 mm 2 mps 688 mmHg 43%
    16:00 +10°C° 0 mm 2 mps 688 mmHg 45%
    17:00 +8°C° 0 mm 2 mps 688 mmHg 54%
    18:00 +6°C° 0 mm 1 mps 687 mmHg 63%
    19:00 +4°C° 0 mm 1 mps 687 mmHg 72%
    20:00 +4°C° 0 mm 1 mps 687 mmHg 70%
    21:00 +4°C° 0 mm 1 mps 688 mmHg 67%
    22:00 +3°C° 0 mm 1 mps 688 mmHg 65%
    23:00 +4°C° 0 mm 1 mps 688 mmHg 63%

    26 September, Wednesday

    Time Temperature Precipitation Wind Pressure Humidity
    00:00 +4°C° 0 mm 1 mps 688 mmHg 61%
    01:00 +3°C° 0 mm 2 mps 687 mmHg 59%
    02:00 +4°C° 0 mm 1 mps 687 mmHg 58%
    03:00 +4°C° 0 mm 1 mps 687 mmHg 58%
    04:00 +4°C° 0 mm 1 mps 687 mmHg 58%
    05:00 +5°C° 0 mm 1 mps 687 mmHg 56%
    06:00 +6°C° 0 mm 1 mps 687 mmHg 54%
    07:00 +7°C° 0 mm 1 mps 687 mmHg 51%
    08:00 +10°C° 0 mm 1 mps 687 mmHg 45%
    09:00 +13°C° 0 mm 1 mps 688 mmHg 38%
    10:00 +18°C° 0 mm 1 mps 688 mmHg 32%
    11:00 +19°C° 0 mm 1 mps 688 mmHg 31%
    12:00 +20°C° 0 mm 1 mps 688 mmHg 31%
    13:00 +21°C° 0 mm 1 mps 688 mmHg 30%
    14:00 +20°C° 0 mm 1 mps 688 mmHg 36%
    15:00 +20°C° 0 mm 1 mps 687 mmHg 41%
    16:00 +19°C° 0 mm 1 mps 687 mmHg 46%
    17:00 +15°C° 0 mm 1 mps 687 mmHg 55%
    18:00 +12°C° 0 mm 1 mps 686 mmHg 63%
    19:00 +10°C° 0 mm 1 mps 686 mmHg 72%
    20:00 +9°C° 0 mm 1 mps 686 mmHg 68%
    21:00 +9°C° 0 mm 1 mps 686 mmHg 63%
    22:00 +8°C° 0 mm 2 mps 686 mmHg 59%
    23:00 +8°C° 0 mm 2 mps 686 mmHg 54%
    Show more